When you browse on this site, cookies collect data to enhance your experience and personalize the content and advertising you see.
Visit our Privacy Policy to learn more. By continuing to use the site, you agree to this use of cookies and data.
  • In Netherlands
  • List of Countries
  • For 7 days
  • Water Temperature
  • Satellite Maps
  • Weather Map
  • Weather Widgets
  • user-avatar
    Login

    Hourly Weather Lezhe

    Today, 17 January, Thursday

    Time Temperature Precipitation Wind Pressure Humidity
    00:00 -1°C° 0 mm 2 mps 741 mmHg 80%
    01:00 -1°C° 0 mm 2 mps 741 mmHg 80%
    02:00 -1°C° 0 mm 2 mps 741 mmHg 80%
    03:00 -1°C° 0 mm 2 mps 741 mmHg 79%
    04:00 -1°C° 0 mm 2 mps 741 mmHg 79%
    05:00 +1°C° 0 mm 2 mps 741 mmHg 79%
    06:00 +1°C° 0 mm 2 mps 740 mmHg 79%
    07:00 +1°C° 0 mm 2 mps 740 mmHg 79%
    08:00 +2°C° 0 mm 2 mps 740 mmHg 76%
    09:00 +5°C° 0 mm 1 mps 740 mmHg 73%
    10:00 +7°C° 0 mm 1 mps 740 mmHg 70%
    11:00 +8°C° 0 mm 1 mps 740 mmHg 68%
    12:00 +9°C° 0 mm 1 mps 740 mmHg 66%
    13:00 +9°C° 0 mm 1 mps 739 mmHg 64%
    14:00 +9°C° 0 mm 1 mps 739 mmHg 67%
    15:00 +8°C° 0 mm 1 mps 739 mmHg 70%
    16:00 +7°C° 0 mm 1 mps 739 mmHg 73%
    17:00 +6°C° 0 mm 1 mps 739 mmHg 73%
    18:00 +4°C° 0 mm 2 mps 739 mmHg 73%
    19:00 +3°C° 0 mm 2 mps 739 mmHg 74%
    20:00 +3°C° 0 mm 2 mps 739 mmHg 72%
    21:00 +3°C° 0 mm 2 mps 739 mmHg 70%
    22:00 +3°C° 0 mm 2 mps 739 mmHg 68%
    23:00 +3°C° 0 mm 2 mps 739 mmHg 69%

    Tomorrow, 18 January, Friday

    Time Temperature Precipitation Wind Pressure Humidity
    00:00 +4°C° 0 mm 2 mps 739 mmHg 70%
    01:00 +4°C° 0 mm 2 mps 738 mmHg 70%
    02:00 +4°C° 0 mm 2 mps 738 mmHg 72%
    03:00 +5°C° 0 mm 2 mps 738 mmHg 74%
    04:00 +5°C° 0 mm 2 mps 737 mmHg 75%
    05:00 +5°C° 0 mm 2 mps 737 mmHg 77%
    06:00 +6°C° 0 mm 2 mps 737 mmHg 78%
    07:00 +6°C° 0 mm 2 mps 737 mmHg 79%
    08:00 +6°C° 0 mm 2 mps 737 mmHg 80%
    09:00 +6°C° 0 mm 2 mps 737 mmHg 81%
    10:00 +7°C° 0 mm 2 mps 737 mmHg 82%
    11:00 +7°C° 0 mm 2 mps 737 mmHg 81%
    12:00 +8°C° 0 mm 2 mps 736 mmHg 80%
    13:00 +9°C° 0 mm 2 mps 736 mmHg 80%
    14:00 +8°C° 0 mm 2 mps 736 mmHg 82%
    15:00 +8°C° 0 mm 2 mps 736 mmHg 84%
    16:00 +8°C° 0 mm 2 mps 736 mmHg 86%
    17:00 +7°C° 0.2 mm 3 mps 736 mmHg 86%
    18:00 +7°C° 0.2 mm 3 mps 736 mmHg 87%
    19:00 +5°C° 0.2 mm 3 mps 737 mmHg 87%
    20:00 +5°C° 0.2 mm 3 mps 737 mmHg 86%
    21:00 +6°C° 0.2 mm 2 mps 737 mmHg 85%
    22:00 +6°C° 0.2 mm 2 mps 737 mmHg 84%
    23:00 +6°C° 0.2 mm 2 mps 737 mmHg 84%

    Day after tomorrow, 19 January, Saturday

    Time Temperature Precipitation Wind Pressure Humidity
    00:00 +6°C° 0.2 mm 2 mps 737 mmHg 84%
    01:00 +6°C° 0.2 mm 2 mps 737 mmHg 84%
    02:00 +6°C° 0.1 mm 2 mps 737 mmHg 83%
    03:00 +6°C° 0.1 mm 2 mps 737 mmHg 83%
    04:00 +6°C° 0.1 mm 2 mps 737 mmHg 83%
    05:00 +6°C° 0 mm 2 mps 737 mmHg 82%
    06:00 +6°C° 0 mm 2 mps 737 mmHg 82%
    07:00 +6°C° 0 mm 2 mps 737 mmHg 81%
    08:00 +7°C° 0 mm 2 mps 737 mmHg 79%
    09:00 +8°C° 0 mm 2 mps 737 mmHg 76%
    10:00 +9°C° 0 mm 2 mps 737 mmHg 73%
    11:00 +10°C° 0 mm 2 mps 737 mmHg 71%
    12:00 +12°C° 0 mm 1 mps 737 mmHg 68%
    13:00 +13°C° 0 mm 1 mps 736 mmHg 66%
    14:00 +12°C° 0 mm 1 mps 736 mmHg 70%
    15:00 +11°C° 0 mm 1 mps 736 mmHg 73%
    16:00 +10°C° 0 mm 1 mps 736 mmHg 77%
    17:00 +8°C° 0 mm 2 mps 736 mmHg 78%
    18:00 +7°C° 0 mm 2 mps 736 mmHg 78%
    19:00 +7°C° 0 mm 2 mps 736 mmHg 79%
    20:00 +7°C° 0 mm 2 mps 736 mmHg 78%
    21:00 +7°C° 0 mm 2 mps 736 mmHg 78%
    22:00 +7°C° 0 mm 2 mps 736 mmHg 77%
    23:00 +7°C° 0.3 mm 2 mps 736 mmHg 78%

    20 January, Sunday

    Time Temperature Precipitation Wind Pressure Humidity
    00:00 +7°C° 0.3 mm 2 mps 736 mmHg 79%
    01:00 +7°C° 0.3 mm 2 mps 735 mmHg 80%
    02:00 +7°C° 1.2 mm 2 mps 735 mmHg 83%
    03:00 +6°C° 1.2 mm 2 mps 735 mmHg 85%
    04:00 +6°C° 1.2 mm 2 mps 735 mmHg 87%
    05:00 +6°C° 0.6 mm 2 mps 735 mmHg 87%
    06:00 +7°C° 0.6 mm 2 mps 735 mmHg 87%
    07:00 +7°C° 0.6 mm 3 mps 735 mmHg 87%
    08:00 +7°C° 0.5 mm 3 mps 735 mmHg 86%
    09:00 +8°C° 0.5 mm 3 mps 736 mmHg 85%
    10:00 +8°C° 0.5 mm 3 mps 736 mmHg 84%
    11:00 +9°C° 0.4 mm 3 mps 736 mmHg 80%
    12:00 +10°C° 0.4 mm 3 mps 736 mmHg 76%
    13:00 +10°C° 0.4 mm 2 mps 735 mmHg 71%
    14:00 +10°C° 0.2 mm 2 mps 735 mmHg 74%
    15:00 +10°C° 0.2 mm 1 mps 736 mmHg 76%
    16:00 +10°C° 0.2 mm 1 mps 736 mmHg 79%
    17:00 +9°C° 0.1 mm 1 mps 736 mmHg 81%
    18:00 +7°C° 0.1 mm 2 mps 736 mmHg 83%
    19:00 +6°C° 0.1 mm 2 mps 737 mmHg 86%
    20:00 +6°C° 0 mm 2 mps 737 mmHg 86%
    21:00 +6°C° 0 mm 2 mps 737 mmHg 86%
    22:00 +5°C° 0 mm 2 mps 737 mmHg 87%
    23:00 +5°C° 0 mm 2 mps 737 mmHg 87%

    21 January, Monday

    Time Temperature Precipitation Wind Pressure Humidity
    00:00 +5°C° 0 mm 2 mps 737 mmHg 87%
    01:00 +5°C° 0 mm 2 mps 738 mmHg 87%
    02:00 +5°C° 0.1 mm 2 mps 737 mmHg 86%
    03:00 +5°C° 0.1 mm 2 mps 737 mmHg 86%
    04:00 +5°C° 0.1 mm 2 mps 737 mmHg 85%
    05:00 +5°C° 0.4 mm 2 mps 737 mmHg 84%
    06:00 +5°C° 0.4 mm 2 mps 737 mmHg 83%
    07:00 +5°C° 0.4 mm 2 mps 737 mmHg 82%
    08:00 +6°C° 0.5 mm 2 mps 737 mmHg 80%
    09:00 +7°C° 0.5 mm 1 mps 738 mmHg 78%
    10:00 +8°C° 0.5 mm 1 mps 738 mmHg 76%
    11:00 +9°C° 0.3 mm 1 mps 737 mmHg 74%
    12:00 +9°C° 0.3 mm 1 mps 737 mmHg 73%
    13:00 +9°C° 0.3 mm 1 mps 737 mmHg 71%
    14:00 +9°C° 0.2 mm 1 mps 737 mmHg 73%
    15:00 +8°C° 0.2 mm 2 mps 736 mmHg 75%
    16:00 +7°C° 0.2 mm 2 mps 736 mmHg 78%
    17:00 +7°C° 0.1 mm 2 mps 736 mmHg 78%
    18:00 +6°C° 0.1 mm 2 mps 736 mmHg 79%
    19:00 +5°C° 0.1 mm 3 mps 736 mmHg 80%
    20:00 +5°C° 0 mm 3 mps 736 mmHg 80%
    21:00 +4°C° 0 mm 3 mps 736 mmHg 79%
    22:00 +4°C° 0 mm 3 mps 736 mmHg 79%
    23:00 +4°C° 0.6 mm 3 mps 736 mmHg 80%

    22 January, Tuesday

    Time Temperature Precipitation Wind Pressure Humidity
    00:00 +4°C° 0.6 mm 3 mps 735 mmHg 80%
    01:00 +4°C° 0.6 mm 3 mps 735 mmHg 81%
    02:00 +4°C° 1.1 mm 3 mps 734 mmHg 82%
    03:00 +4°C° 1.1 mm 3 mps 734 mmHg 83%
    04:00 +4°C° 1.1 mm 3 mps 733 mmHg 84%
    05:00 +4°C° 0.7 mm 3 mps 733 mmHg 83%
    06:00 +4°C° 0.7 mm 3 mps 732 mmHg 83%
    07:00 +4°C° 0.7 mm 3 mps 732 mmHg 83%
    08:00 +5°C° 0.1 mm 3 mps 732 mmHg 81%
    09:00 +7°C° 0.1 mm 3 mps 731 mmHg 79%
    10:00 +7°C° 0.1 mm 3 mps 731 mmHg 77%
    11:00 +8°C° 0.4 mm 3 mps 730 mmHg 78%
    12:00 +8°C° 0.4 mm 3 mps 729 mmHg 80%
    13:00 +8°C° 0.4 mm 3 mps 728 mmHg 81%
    14:00 +8°C° 0.6 mm 3 mps 728 mmHg 82%
    15:00 +6°C° 0.6 mm 4 mps 728 mmHg 82%
    16:00 +6°C° 0.6 mm 5 mps 727 mmHg 82%
    17:00 +6°C° 2.6 mm 4 mps 727 mmHg 86%
    18:00 +7°C° 2.6 mm 3 mps 727 mmHg 91%
    19:00 +6°C° 2.6 mm 2 mps 728 mmHg 95%
    20:00 +6°C° 1.6 mm 2 mps 728 mmHg 94%
    21:00 +6°C° 1.6 mm 2 mps 728 mmHg 93%
    22:00 +6°C° 1.6 mm 2 mps 729 mmHg 92%
    23:00 +5°C° 0 mm 2 mps 729 mmHg 91%
    Show more